Location: New Mesquite
(33.1168°N, 96.4336°W)
Time: 20:19:52
(UTC+00:00)

OPS-SAT - Pass Details

Date: 08 October 2022
Orbit: 486 x 504 km, 97.5° (Epoch: 05 December)

Event Time Altitude Azimuth Distance (km) Brightness Sun altitude
Rises 01:20:35 0° 352° (N) 2,629 ? -17.2°
Reaches altitude 10° 01:23:10 10° 333° (NNW) 1,738 ? -17.8°
Maximum altitude 01:25:46 18° 289° (WNW) 1,298 ? -18.3°
Drops below altitude 10° 01:28:21 10° 245° (WSW) 1,727 ? -18.8°
Sets 01:30:55 0° 226° (SW) 2,605 ? -19.4°
